Home   Weather   Uluru   Past weeks

Flag for Australia Past Weather in Uluru, Northern Territory, Australia — Yesterday and Last 2 Weeks

Now
88 °F

Partly sunny.


Feels Like: 98 °F
Forecast: 76 / 93 °F
Wind: 13 mph from Southwest

Location: Ayers Rock

Current Time: Jan 20, 2017 at 5:46:20 pm

Latest Report: Jan 20, 2017 at 4:30 pm


Visibility: N/A

Pressure: 29.68 "Hg (26.96 "Hg at 857m altitude)

Humidity: 66%

Dew Point: 75 °F

Location of UluruLocation

Past Weather in Uluru — Graph

°F

Uluru Temperature Yesterday

Maximum temperature yesterday: 93 °F (at 3:30 pm)
Minimum temperature yesterday: 77 °F (at 12:30 am)
Average temperature yesterday: 84 °F

High & Low Weather Summary for the Past Weeks

 TemperatureHumidityPressure
High102 °F (Jan 5, 4:30 pm)100% (Jan 12, 3:31 am)29.95 "Hg (Jan 12, 3:31 am)
Low72 °F (Jan 12, 3:31 am)16% (Jan 5, 4:30 pm)29.56 "Hg (Jan 6, 4:30 pm)
Average87 °F53%29.74 "Hg
* Reported Jan 5 4:30 pm — Jan 20 4:30 pm, Uluru, Weather by CustomWeather, © 2017

Note: Actual official high and low records may vary slightly from our data, if they occured in-between our weather recording intervals... More about our weather records

Advertising

Uluru Weather History for the Previous 24 Hours

Scroll right to see more
 ConditionsComfort  
Time TempWeatherWind HumidityBarometerVisibility
4:30 pm
Fri, Jan 20
88 °FPartly sunny.13 mph66%29.68 "HgN/A
3:30 pm93 °FScattered clouds.12 mph47%29.68 "HgN/A
2:30 pm90 °FPartly sunny.12 mph59%29.71 "HgN/A
1:30 pm90 °FSunny.7 mph59%29.71 "HgN/A
12:34 pm84 °FBroken clouds.6 mph79%29.74 "HgN/A
12:30 pm82 °FScattered clouds.6 mph84%29.74 "HgN/A
11:30 am91 °FScattered clouds.13 mph52%29.74 "HgN/A
10:30 am90 °FScattered clouds.13 mph55%29.77 "HgN/A
9:30 am86 °FScattered clouds.10 mph66%29.77 "HgN/A
8:30 am84 °FSunny.13 mph70%29.77 "HgN/A
7:30 am81 °FSunny.5 mph79%29.74 "HgN/A
6:30 am81 °FClear.6 mph79%29.71 "HgN/A
5:30 am81 °FOvercast.No wind84%29.71 "HgN/A
4:30 am79 °FPassing clouds.No wind89%29.68 "HgN/A
3:30 am79 °FClear.5 mph89%29.68 "HgN/A
2:30 am81 °FClear.5 mph79%29.68 "HgN/A
1:30 am81 °FClear.6 mph79%29.71 "HgN/A
12:30 am82 °FClear.6 mph74%29.71 "HgN/A
11:30 pm
Thu, Jan 19
82 °FPassing clouds.6 mph74%29.71 "HgN/A
10:30 pm84 °FClear.6 mph70%29.71 "HgN/A
9:30 pm86 °FPassing clouds.9 mph62%29.68 "HgN/A
8:30 pm88 °FClear.8 mph55%29.65 "HgN/A
7:30 pm90 °FSunny.9 mph52%29.65 "HgN/A
6:30 pm91 °FScattered clouds.14 mph49%29.65 "HgN/A
5:30 pm93 °FSunny.15 mph44%29.65 "HgN/A
Weather by CustomWeather, © 2017

See weather overviewHow to use our weather pages